Regional Weather Roundup
Issued by NWS Binghamton, NY

Home | Current Version | Previous Version | Text Only | Print | Product List | Glossary On
Versions: 1 2 3 4 5 6 7 8 9 10 11 12 13 14 15 16 17 18 19 20 21 22 23 24 25 26 27
000
ASUS41 KBGM 251110
RWRBGM

REGIONAL WEATHER ROUNDUP
NATIONAL WEATHER SERVICE BINGHAMTON NY
600 AM EST SAT NOV 25 2017

Note: "fair" indicates few or no clouds below 12,000 feet with no
significant weather and/or obstructions to visibility.

* = Station(s) that does not report precipitation, such as rain,
snow, etc, also no thunder or fog.

NYZ009-015>018-022>025-036-037-044>046-055>057-062-251200
...Central New York...

CITY           SKY/WX    TMP DP  RH WIND       PRES   REMARKS
Binghamton     CLEAR     38  24  57 S10       29.66F WCI  31
Cortland       FAIR      45  27  49 S8        29.65S
Dansville      CLEAR     51  24  34 SE6       29.58F
Elmira         MOCLDY    32  27  81 CALM      29.65F
Seneca Falls   SUNNY     45  28  53 S13       29.60F
Ithaca         CLOUDY    42  25  50 S10       29.64F
Hamilton       CLEAR     39  25  56 SE6       29.65S WCI  35
Hornell        CLEAR     46  23  39 S3        29.62F
Monticello     CLOUDY    27  22  81 E3        29.77F
Penn Yan       CLOUDY    46  23  40 SW14G21   29.59F
Rome           PTCLDY    40  25  55 E10       29.66F WCI  33
Sidney         CLEAR     39  23  52 SW5       29.69F
Syracuse       MOCLDY    46  25  43 S10       29.60F
$$

PAZ038>040-043-044-047-048-072-251200
...Northeast Pennsylvania...

CITY           SKY/WX    TMP DP  RH WIND       PRES   REMARKS
Hazleton       CLOUDY    36  27  69 CALM      29.78F
Scranton       PTCLDY    39  26  59 CALM      29.76F
$$
&&
KEY
WCI = Wind Chill Index
VSB = Visibility
HX  = Heat Index
$$




USA.gov is the U.S. government's official web portal to all federal, state and local government web resources and services.